C/2018 A3 ( ATLAS )

Japanese version
Home page
Updated on November 3, 2020

---------------------------------------------------------------------

* Profile

Discovery Date January 10, 2018
Magnitude 18.7 mag
Discoverer Asteroid Terrestrial-impact Last Alert System (ATLAS) search program

* Pictures

* Orbital Elements

Epoch 2018 Dec. 28.0 TT = JDT 2458480.5
T 2019 Jan. 12.86367 TT                                 Rudenko
q   3.2767147            (2000.0)            P               Q
z  +0.0020081      Peri.   86.42661     -0.24776629     +0.95551896
 +/-0.0000003      Node   194.27957     +0.40380135     +0.25195767
e   0.9934201      Incl.  139.56199     +0.88065676     +0.15329984
From 1476 observations 2018 Jan. 10-2020 Oct. 15, mean residual 0".5.

* Finding Charts

* Magnitudes Graph

        m1 = 8.0 + 5 log d + 10.0 log r

---------------------------------------------------------------------

The orbital elements are published on M.P.E.C. 2020-U96.
The charts are made with StellaNavigator Ver.10 (AstroArts).
The magnitudes graphs are made with Comet for Windows.

---------------------------------------------------------------------

Copyright(C) Seiichi Yoshida (comet@aerith.net). All rights reserved.